Visibility
15.0 15.0 8.4 13.6 15.0 12.0 15.0 15.0 15.0 15.0 15.0 15.0 14.3 14.8 15.0 15.0 15.0 15.0 15.0 15.0 15.0 15.0 15.0 15.0 5.3 15.0 15.0 15.0 15.0 15.0 15.0 0.1 7.7 15.0 15.0 15.0 15.0 15.0 15.0 14.5 0.1 15.0 14.6 11.3
15.0 15.0 15.0 13.4 10.4 10.1 15.0 14.7 15.0 15.0 15.0 15.0 9.8 15.0 15.0 15.0 15.0 15.0 15.0 15.0 15.0 15.0 15.0 15.0 15.0 15.0 15.0 15.0 15.0 3.3 7.7 5.0 0.6 14.1 12.1 12.8 15.0 15.0 15.0 15.0 15.0 15.0 8.9 15.0
15.0 15.0 15.0 15.0 11.3 6.8 15.0 2.1 0.1 9.5 15.0 15.0 15.0 15.0 15.0 15.0 15.0 15.0 15.0 15.0 15.0 15.0 15.0 15.0 15.0 15.0 15.0 15.0 15.0 15.0 11.9 1.3 10.6 0.6 15.0 15.0 15.0 15.0 15.0 15.0 0.2 15.0 15.0 15.0
15.0 15.0 15.0 15.0 15.0 8.8 6.6 11.5 0.1 0.0 4.0 0.4 2.0 11.1 15.0 15.0 15.0 15.0 15.0 15.0 15.0 15.0 5.8 15.0 15.0 15.0 15.0 15.0 15.0 15.0 0.8 0.3 15.0 15.0 15.0 15.0 15.0 15.0 15.0 10.2 15.0 12.9 15.0 15.0
15.0 15.0 15.0 15.0 15.0 15.0 10.9 0.7 0.2 0.1 0.1 0.4 0.1 0.1 0.4 15.0 15.0 15.0 3.9 15.0 15.0 15.0 5.9 15.0 15.0 15.0 15.0 14.9 15.0 3.3 4.5 0.4 15.0 10.7 15.0 15.0 15.0 15.0 15.0 15.0 15.0 15.0 15.0 15.0
15.0 15.0 15.0 15.0 15.0 12.6 0.4 2.9 15.0 0.3 0.0 2.3 0.4 11.4 15.0 15.0 12.7 4.9 15.0 15.0 13.0 7.0 15.0 15.0 15.0 15.0 15.0 15.0 8.3 0.3 0.1 0.2 0.3 1.3 15.0 15.0 13.2 15.0 15.0 15.0 15.0 15.0 15.0 15.0
15.0 15.0 15.0 15.0 15.0 15.0 1.4 15.0 15.0 0.0 0.1 0.1 0.4 0.0 0.3 4.2 15.0 0.0 15.0 15.0 0.2 11.6 15.0 15.0 15.0 15.0 15.0 15.0 15.0 15.0 0.3 0.1 0.1 0.1 12.8 0.3 15.0 15.0 15.0 15.0 13.3 15.0 15.0 15.0
15.0 15.0 15.0 15.0 15.0 15.0 15.0 15.0 15.0 0.1 0.4 0.1 8.3 0.0 1.2 0.2 0.2 3.0 15.0 15.0 13.8 15.0 15.0 0.9 11.8 15.0 15.0 15.0 15.0 13.8 10.7 0.1 0.1 0.1 3.7 14.0 15.0 15.0 15.0 9.1 0.1 4.3 15.0 15.0
15.0 15.0 15.0 15.0 15.0 15.0 15.0 15.0 15.0 0.3 0.0 4.3 8.7 0.0 0.0 0.6 15.0 13.8 0.1 14.1 15.0 15.0 15.0 0.4 1.2 2.3 15.0 15.0 3.5 15.0 2.1 0.1 0.1 1.1 0.1 1.1 1.6 15.0 15.0 15.0 0.1 1.4 8.4 15.0
15.0 15.0 15.0 15.0 15.0 15.0 15.0 15.0 15.0 12.2 0.0 15.0 15.0 14.3 0.3 0.0 0.0 0.1 15.0 15.0 11.1 15.0 5.7 0.4 1.0 4.0 15.0 11.4 4.5 1.0 3.5 0.7 0.3 1.7 0.1 11.3 15.0 15.0 15.0 3.7 0.1 0.0 0.0 0.3
15.0 15.0 15.0 15.0 15.0 15.0 14.3 15.0 15.0 15.0 0.2 15.0 15.0 15.0 15.0 8.5 8.1 0.2 1.2 0.2 1.3 0.1 0.1 1.0 13.6 11.1 3.9 0.3 11.7 0.2 6.2 0.2 0.9 4.6 0.2 1.2 15.0 9.4 4.0 0.0 0.0 0.0 9.4 10.0
15.0 15.0 15.0 15.0 15.0 14.3 11.9 15.0 15.0 15.0 0.1 3.2 15.0 15.0 15.0 15.0 15.0 0.9 0.0 0.1 0.1 0.6 0.1 0.8 0.9 0.3 0.1 8.5 0.1 15.0 1.1 8.2 0.3 0.3 1.6 6.2 0.0 0.0 0.0 0.2 5.4 13.2 15.0 6.6
15.0 15.0 15.0 15.0 15.0 15.0 11.4 14.5 13.5 1.6 0.0 0.1 15.0 15.0 15.0 15.0 15.0 15.0 0.3 6.1 5.2 0.1 2.2 0.1 0.1 0.3 8.7 0.6 0.3 15.0 15.0 15.0 0.9 0.4 0.1 0.1 0.1 2.9 0.2 8.7 15.0 15.0 15.0 15.0
15.0 15.0 15.0 15.0 15.0 15.0 13.0 13.5 12.9 3.7 0.1 0.0 7.2 15.0 15.0 15.0 15.0 15.0 1.0 0.0 0.0 0.0 0.0 0.1 0.1 0.1 7.7 4.1 13.8 15.0 3.4 0.2 0.1 2.6 0.4 2.8 0.1 0.2 0.1 0.9 15.0 15.0 15.0 15.0
15.0 15.0 15.0 15.0 15.0 15.0 13.1 15.0 15.0 15.0 0.0 0.0 0.1 12.3 15.0 15.0 15.0 15.0 15.0 3.7 0.0 0.2 0.1 0.1 0.2 5.4 0.2 0.4 7.8 1.0 0.1 0.1 0.1 0.1 0.1 0.1 0.1 0.1 0.3 5.8 15.0 15.0 13.6 15.0
15.0 15.0 15.0 15.0 15.0 13.5 15.0 0.1 9.1 15.0 14.6 0.0 0.2 15.0 15.0 15.0 15.0 15.0 14.6 8.6 0.3 0.1 0.1 0.2 1.3 3.8 0.8 0.1 0.1 0.1 0.1 0.1 0.1 0.1 0.2 0.1 0.2 0.2 12.2 1.5 4.0 15.0 15.0 15.0
15.0 15.0 15.0 15.0 15.0 8.3 2.9 0.2 9.0 15.0 1.3 0.0 0.1 13.4 15.0 15.0 15.0 15.0 15.0 15.0 4.5 0.2 0.2 0.3 14.0 0.2 0.1 0.1 0.1 0.1 0.5 1.0 0.1 0.1 0.5 0.1 0.2 0.3 1.1 1.8 14.6 15.0 15.0 15.0
15.0 15.0 15.0 15.0 15.0 8.0 6.5 0.0 13.8 11.1 0.0 0.0 0.3 10.7 15.0 15.0 15.0 15.0 15.0 15.0 6.2 1.1 0.2 0.1 0.2 0.1 0.1 0.1 0.5 1.4 6.9 8.1 0.1 0.1 0.1 0.1 0.2 0.7 9.1 15.0 15.0 15.0 15.0 10.0
15.0 15.0 15.0 15.0 1.9 0.0 0.0 13.4 13.4 1.8 0.0 0.1 0.4 4.3 15.0 15.0 15.0 15.0 14.5 15.0 0.9 0.6 0.2 0.1 0.1 0.1 0.1 0.1 0.1 0.1 0.2 0.2 0.3 0.3 0.4 13.5 14.7 15.0 15.0 8.0 9.8 5.1 5.1 5.8
15.0 7.1 0.0 0.0 0.0 11.5 2.3 0.0 0.1 0.3 0.5 0.1 0.7 15.0 10.2 15.0 15.0 3.1 14.0 6.6 0.7 0.3 0.1 0.2 0.9 0.2 0.1 0.1 0.1 0.1 0.1 0.2 0.2 0.7 1.8 0.7 2.5 1.9 1.2 0.7 1.0 0.7 0.6 1.2
0.0 0.0 0.0 0.0 4.8 0.0 0.6 0.4 13.6 2.2 13.7 15.0 10.8 13.8 1.6 4.8 0.7 0.4 0.4 0.8 0.6 0.2 0.2 0.1 0.2 0.1 0.1 0.1 0.1 0.1 0.1 0.1 0.1 0.1 0.1 0.1 0.1 0.2 0.6 1.3 0.8 0.6 0.7 0.4
6.5 0.3 0.0 0.0 3.3 7.0 9.9 8.7 12.1 13.3 4.7 15.0 4.0 0.5 1.9 5.2 15.0 1.0 0.5 0.8 0.8 0.2 3.0 0.1 0.2 0.1 0.1 0.2 0.1 0.1 0.1 0.1 0.1 0.1 0.1 0.2 0.2 0.2 0.2 0.3 0.6 0.5 0.4 0.6
0.0 0.0 0.1 1.3 6.2 7.8 14.6 14.1 5.2 0.4 0.1 0.4 0.2 0.2 0.9 14.1 5.2 3.1 1.1 0.5 0.4 11.6 1.2 0.3 0.2 0.1 0.2 0.2 0.2 0.2 0.3 0.6 0.9 0.9 1.0 0.9 0.5 0.5 0.3 0.2 0.2 0.3 0.4 0.4
0.4 0.3 2.4 0.6 1.4 0.6 0.5 0.1 0.1 0.1 0.1 0.1 0.1 0.2 0.3 5.7 1.5 2.5 0.6 1.5 6.1 0.7 0.5 0.6 0.3 0.4 0.5 0.6 1.0 4.4 1.5 2.6 2.7 1.6 1.7 1.3 0.8 0.4 0.8 0.4 0.5 0.8 0.4 0.2
5.1 1.7 0.5 0.1 0.1 0.1 0.1 0.1 1.0 0.4 0.2 0.1 0.1 0.2 1.0 1.1 1.1 1.1 1.0 2.0 0.9 0.5 0.4 0.3 0.3 0.6 0.8 1.4 2.1 4.0 3.3 2.2 2.6 3.0 2.5 3.0 1.9 1.3 1.5 1.4 0.8 2.2 1.3 0.4
5.1 0.5 0.7 4.6 0.6 2.1 15.0 14.7 3.9 9.2 4.0 0.8 0.1 0.1 0.1 1.0 2.2 0.8 0.3 0.2 0.6 0.4 0.3 0.3 0.5 0.5 0.4 0.5 0.9 1.4 1.8 1.8 2.1 3.2 3.0 5.3 3.2 1.1 1.0 5.7 2.3 1.0 0.9 1.5
0.1 0.2 0.8 0.6 0.3 0.9 1.6 1.8 1.2 8.6 0.6 0.2 0.2 0.1 0.1 0.1 0.2 0.4 0.4 0.2 0.2 0.1 0.2 0.4 0.4 0.3 0.4 0.5 1.2 3.9 2.2 2.8 3.0 3.2 4.1 7.4 5.8 11.1 9.6 3.3 3.9 1.3 1.0 0.4